"datetime","# probes","# resolvers","can_ipv6","can_ipv6_prbs","can_tcp","can_tcp_prbs","can_tcp6","can_tcp6_prbs","does_ecs","does_ecs_prbs","does_flagday","does_flagday_prbs","does_rov4","does_rov4_prbs","does_rov6","does_rov6_prbs","does_qnamemin","doesnt_qnamemin","does_qnamemin_prbs","doesnt_qnamemin_prbs","does_nxdomain","doesnt_nxdomain","does_nxdomain_prbs","doesnt_nxdomain_prbs","has_ta_19036","hasnt_ta_19036","has_ta_19036_prbs","hasnt_ta_19036_prbs","has_ta_20326","hasnt_ta_20326","has_ta_20326_prbs","hasnt_ta_20326_prbs","can_rsamd5","cannot_rsamd5","broken_rsamd5","can_rsamd5_prbs","cannot_rsamd5_prbs","broken_rsamd5_prbs","can_dsa","cannot_dsa","broken_dsa","can_dsa_prbs","cannot_dsa_prbs","broken_dsa_prbs","can_rsasha1","cannot_rsasha1","broken_rsasha1","can_rsasha1_prbs","cannot_rsasha1_prbs","broken_rsasha1_prbs","can_dsansec3","cannot_dsansec3","broken_dsansec3","can_dsansec3_prbs","cannot_dsansec3_prbs","broken_dsansec3_prbs","can_rsansec3","cannot_rsansec3","broken_rsansec3","can_rsansec3_prbs","cannot_rsansec3_prbs","broken_rsansec3_prbs","can_rsasha256","cannot_rsasha256","broken_rsasha256","can_rsasha256_prbs","cannot_rsasha256_prbs","broken_rsasha256_prbs","can_rsasha512","cannot_rsasha512","broken_rsasha512","can_rsasha512_prbs","cannot_rsasha512_prbs","broken_rsasha512_prbs","can_eccgost","cannot_eccgost","broken_eccgost","can_eccgost_prbs","cannot_eccgost_prbs","broken_eccgost_prbs","can_ecdsa256","cannot_ecdsa256","broken_ecdsa256","can_ecdsa256_prbs","cannot_ecdsa256_prbs","broken_ecdsa256_prbs","can_ecdsa384","cannot_ecdsa384","broken_ecdsa384","can_ecdsa384_prbs","cannot_ecdsa384_prbs","broken_ecdsa384_prbs","can_ed25519","cannot_ed25519","broken_ed25519","can_ed25519_prbs","cannot_ed25519_prbs","broken_ed25519_prbs","can_ed448","cannot_ed448","broken_ed448","can_ed448_prbs","cannot_ed448_prbs","broken_ed448_prbs","can_gost","cannot_gost","broken_gost","can_gost_prbs","cannot_gost_prbs","broken_gost_prbs","can_sha384","cannot_sha384","broken_sha384","can_sha384_prbs","cannot_sha384_prbs","broken_sha384_prbs","is_internal","is_forwarding","is_external","is_internal_prbs","is_forwarding_prbs","is_external_prbs"
2017-06-20T23:59:59Z,220,378,312,189,373,219,293,179,130,88,0,0,0,0,0,0,2,376,1,219,6,370,3,217,0,0,0,0,0,0,0,0,44,238,89,32,154,57,83,286,0,57,177,0,174,194,0,109,128,0,82,287,0,57,177,0,172,196,0,108,129,0,173,195,0,108,128,0,173,195,0,109,128,0,42,332,0,29,201,0,170,200,0,107,131,0,169,201,0,107,132,0,0,378,0,0,220,0,0,376,2,0,219,1,131,241,1,82,156,1,171,198,0,108,129,0,189,93,96,120,72,57
2017-06-21T23:59:59Z,222,382,313,190,377,221,290,179,134,88,0,0,0,0,0,0,2,379,1,221,6,374,3,219,0,0,0,0,0,0,0,0,47,242,87,34,157,56,84,289,1,57,180,1,179,194,0,111,129,0,87,286,1,60,177,1,179,194,0,111,129,0,178,195,0,111,130,0,179,194,0,111,129,0,44,334,0,30,202,0,172,203,0,107,135,0,173,202,0,108,134,0,0,382,0,0,222,0,0,381,1,0,222,1,133,243,1,83,158,1,172,202,0,108,135,0,189,94,98,120,72,58
2017-06-22T23:59:59Z,223,383,316,192,376,222,293,180,133,87,0,0,0,0,0,0,2,380,1,222,6,375,3,220,0,0,0,0,0,0,0,0,44,247,86,31,160,55,86,288,1,60,178,1,178,196,0,111,130,0,86,289,0,60,178,0,178,196,0,111,130,0,180,194,0,113,128,0,179,195,0,112,129,0,42,336,1,30,203,1,172,204,0,109,136,0,172,204,0,108,135,0,0,383,0,0,223,0,0,383,0,0,223,0,132,245,1,82,160,1,171,204,0,108,136,0,190,92,98,123,71,58
2017-06-23T23:59:59Z,222,381,314,191,373,221,287,176,135,89,0,0,0,0,0,0,4,376,2,221,6,373,3,219,0,0,0,0,0,0,0,0,45,244,86,32,159,56,85,288,0,59,178,0,176,196,0,110,130,0,86,287,0,61,176,0,179,193,0,114,128,0,178,194,0,112,128,0,177,195,0,111,129,0,44,333,0,31,201,0,169,205,0,107,136,0,170,204,0,107,135,0,0,381,0,0,222,1,0,381,0,0,222,0,132,243,1,83,158,1,171,202,0,108,134,0,186,95,98,123,73,57
2017-06-24T23:59:59Z,218,372,307,187,366,217,286,178,127,85,0,0,0,0,0,0,0,371,0,218,6,364,3,215,0,0,0,0,0,0,0,0,44,238,85,31,154,55,83,282,0,57,176,0,173,191,0,108,127,0,85,280,0,59,174,0,170,194,0,107,129,0,171,193,0,107,128,0,172,192,0,108,127,0,42,327,0,29,199,0,165,201,0,104,133,0,166,200,0,105,132,0,0,372,0,0,218,0,0,372,0,0,218,0,130,237,1,82,155,1,164,201,0,104,134,0,183,91,95,119,70,56
2017-06-25T23:59:59Z,221,377,309,188,369,219,286,176,129,86,0,0,0,0,0,0,2,374,1,220,6,369,3,218,0,0,0,0,0,0,0,0,48,238,86,35,155,55,87,283,0,60,176,1,178,191,0,111,127,0,85,285,0,59,177,0,176,193,0,110,128,0,176,193,0,110,128,0,175,194,0,110,129,0,43,331,0,30,201,0,169,202,0,107,133,0,169,202,0,107,133,0,0,377,0,1,221,0,0,377,0,0,221,0,129,243,1,81,158,1,167,203,0,106,135,0,194,87,95,126,66,56
2017-06-26T23:59:59Z,226,388,318,192,380,224,290,179,128,86,0,0,0,0,0,0,2,385,1,225,6,382,3,224,0,0,0,0,0,0,0,0,46,251,86,33,162,55,87,295,0,60,183,0,177,204,0,111,136,0,89,293,0,62,181,0,180,201,0,113,133,0,180,201,0,114,133,0,181,200,0,114,132,0,43,342,1,31,206,1,173,210,0,109,139,0,173,210,0,109,139,0,0,388,0,0,226,0,0,387,1,0,226,1,133,251,1,83,163,1,173,209,0,110,139,0,198,90,98,127,70,57
2017-06-27T23:59:59Z,226,391,319,192,384,224,295,178,133,85,0,0,0,0,0,0,2,388,1,225,6,383,3,223,0,0,0,0,0,0,0,0,49,249,87,36,163,55,87,297,1,62,182,1,182,202,0,114,134,0,90,295,0,63,181,0,182,202,0,115,135,0,181,203,0,114,136,0,181,203,0,113,135,0,45,343,1,32,206,1,181,205,0,114,137,0,180,206,0,113,137,0,0,391,0,0,226,0,0,391,0,0,226,0,134,253,1,83,165,1,176,209,0,111,139,0,198,90,99,128,67,57
2017-06-28T23:59:59Z,226,387,320,194,380,224,299,183,138,91,0,0,0,0,0,0,4,382,2,225,3,382,2,224,0,0,0,0,0,0,0,0,48,244,89,35,160,57,87,294,0,62,182,1,181,199,0,114,134,0,86,293,2,61,182,1,181,199,0,115,134,0,180,200,0,114,134,0,182,198,0,116,133,0,45,340,0,32,206,1,177,205,0,113,137,0,178,204,0,114,136,0,0,387,0,0,226,1,0,387,0,0,226,0,134,249,1,85,164,1,176,205,0,113,138,0,192,92,100,128,70,58
2017-06-29T23:59:59Z,226,388,321,194,379,224,295,182,132,87,0,0,0,0,0,0,2,385,1,225,3,385,2,225,0,0,0,0,0,0,0,0,49,241,92,36,160,60,87,295,0,61,184,0,184,197,0,116,133,0,87,295,0,61,184,0,185,196,0,116,132,0,182,198,1,115,133,1,185,196,0,116,132,0,43,343,0,30,209,0,176,207,0,113,139,0,176,207,0,112,139,0,0,388,0,0,226,0,0,388,0,0,226,0,137,247,1,86,163,1,177,205,1,113,138,1,193,91,102,127,69,60
2017-06-30T23:59:59Z,226,385,319,194,378,224,291,180,135,89,0,0,0,0,0,0,4,380,2,225,3,380,2,224,0,0,0,0,0,0,0,0,49,240,91,36,160,59,84,295,0,60,183,0,178,200,0,114,135,0,83,296,0,59,184,0,181,197,0,116,132,0,177,199,2,114,133,2,181,197,0,116,132,0,43,340,0,30,208,0,172,208,0,111,140,0,172,208,0,111,140,0,0,385,0,0,226,1,0,385,0,0,226,1,135,246,1,86,164,1,173,206,1,112,139,1,191,90,102,126,68,60
2017-07-01T23:59:59Z,223,381,316,192,376,222,289,179,139,93,0,0,0,0,0,0,0,380,0,223,3,378,2,222,0,0,0,0,0,0,0,0,48,238,90,35,156,58,88,287,0,61,179,0,181,193,0,115,129,0,86,289,0,60,180,0,178,196,0,113,131,0,175,199,0,111,133,0,178,196,0,113,131,0,42,336,1,30,205,1,171,205,0,109,137,0,171,205,0,109,137,0,0,381,0,0,223,0,0,379,2,0,222,1,136,241,1,86,159,1,172,203,1,110,136,1,188,91,100,125,70,59
2017-07-02T23:59:59Z,225,385,318,193,378,223,289,177,137,93,0,0,0,0,0,0,2,382,1,224,3,382,2,224,0,0,0,0,0,0,0,0,48,242,90,35,159,59,84,294,1,59,182,1,179,199,0,114,133,0,84,294,1,59,183,1,179,199,0,114,133,0,179,199,0,114,133,0,179,199,0,114,133,0,40,341,2,28,208,1,174,206,0,111,138,0,174,206,0,111,138,0,0,385,0,0,225,0,1,383,1,1,225,1,134,247,1,84,163,1,173,206,1,111,138,1,192,90,100,126,69,59
2017-07-03T23:59:59Z,228,395,322,194,387,226,290,178,138,92,0,0,0,0,0,0,2,392,1,227,6,387,3,225,0,0,0,0,0,0,0,0,48,252,90,35,162,59,91,298,0,63,184,0,186,202,0,117,133,0,90,299,0,63,184,0,186,202,0,117,133,0,183,205,0,114,135,0,185,203,0,117,134,0,43,348,2,29,211,1,176,213,1,112,141,1,179,211,0,113,139,0,0,395,0,0,228,0,1,394,0,1,228,0,137,254,1,85,165,1,180,209,1,115,138,1,198,94,100,129,72,59
2017-07-04T23:59:59Z,228,393,321,194,386,226,291,179,134,90,0,0,0,0,0,0,4,388,2,227,6,387,3,226,0,0,0,0,0,0,0,0,49,250,89,36,162,59,89,298,0,62,184,0,180,206,0,114,136,0,90,297,0,63,183,0,185,201,0,117,132,0,179,207,0,113,136,0,183,203,0,116,134,0,44,347,0,30,210,0,177,211,0,112,139,0,175,213,0,111,140,0,0,393,0,0,228,1,0,393,0,0,228,1,133,256,1,83,166,1,177,210,1,113,138,1,200,92,99,132,72,58
2017-07-05T23:59:59Z,226,391,321,193,385,225,286,175,134,89,0,0,0,0,0,0,4,386,2,225,6,385,3,224,0,0,0,0,0,0,0,0,48,253,85,35,163,56,90,295,0,63,181,0,181,203,0,115,132,0,91,294,0,64,180,0,183,201,0,117,131,0,181,203,0,115,133,0,181,203,0,115,132,0,43,345,1,30,207,1,174,212,0,111,138,0,175,211,0,112,137,0,0,391,0,1,226,0,0,391,0,1,226,0,132,255,1,83,164,1,178,207,1,114,135,1,196,93,99,128,71,57
2017-07-06T23:59:59Z,226,394,323,193,386,225,290,180,136,90,0,0,0,0,0,0,2,391,1,225,6,386,3,223,0,0,0,0,0,0,0,0,49,256,84,36,161,55,90,297,1,61,183,1,181,206,0,113,133,0,93,293,0,63,181,0,182,203,0,114,133,0,181,204,0,114,133,0,183,202,0,115,132,0,45,344,1,30,207,1,174,213,0,109,139,0,174,215,0,109,139,0,0,394,0,0,226,0,1,392,1,1,225,1,131,257,1,82,165,1,176,210,1,111,137,1,205,88,98,131,67,57
2017-07-07T23:59:59Z,226,391,318,192,381,224,293,182,130,89,0,0,0,0,0,0,3,387,2,225,6,382,3,223,0,0,0,0,0,0,0,0,51,254,81,37,161,54,94,291,1,65,180,1,182,203,0,115,130,0,94,290,0,64,180,0,180,204,0,113,132,0,180,204,0,113,132,0,180,204,0,113,132,0,46,341,0,32,207,0,172,212,0,110,137,0,172,214,0,110,137,0,0,391,0,2,226,0,0,391,0,1,226,0,128,256,1,82,164,1,171,211,1,110,137,1,205,89,94,133,68,56
2017-07-08T23:59:59Z,225,391,321,192,382,222,297,181,130,86,0,0,0,0,0,0,4,386,2,224,6,385,3,223,0,0,0,0,0,0,0,0,50,254,83,36,162,54,91,296,0,62,182,0,179,207,0,111,134,0,93,294,0,63,180,0,182,204,0,114,132,0,180,206,0,112,132,0,181,205,0,113,132,0,45,344,0,31,206,0,170,216,0,107,139,0,170,216,0,107,139,0,0,391,0,1,225,0,2,389,0,1,225,0,131,255,2,84,162,2,174,211,1,110,137,1,206,86,96,134,65,57
2017-07-09T23:59:59Z,225,384,315,192,377,223,287,179,136,90,0,0,0,0,0,0,3,381,2,224,6,375,3,222,0,0,0,0,0,0,0,0,50,244,86,36,159,57,91,289,0,63,180,0,181,198,0,113,131,0,90,289,1,62,180,1,181,197,1,113,129,1,182,196,1,114,128,1,182,196,1,114,128,1,41,339,2,29,206,3,176,202,1,112,133,1,176,203,0,112,134,0,0,384,0,0,225,1,0,384,0,0,225,1,132,247,2,84,160,2,173,205,2,110,134,2,204,84,93,133,65,56
2017-07-10T23:59:59Z,228,393,321,194,387,226,295,182,134,88,0,0,0,0,0,0,3,390,2,227,6,387,3,226,0,0,0,0,0,0,0,0,50,249,90,37,160,58,91,298,0,63,183,0,188,200,0,117,131,0,93,296,0,63,182,0,187,201,0,117,132,0,187,201,0,117,132,0,187,201,0,117,132,0,44,348,0,31,209,0,177,211,0,112,138,0,177,211,0,112,138,0,0,393,0,0,228,0,0,391,2,0,227,1,133,256,1,84,165,1,175,213,1,111,139,1,205,87,99,134,66,58
2017-07-11T23:59:59Z,226,390,318,192,384,224,292,180,135,89,0,0,0,0,0,0,2,388,2,225,6,384,3,224,0,0,0,0,0,0,0,0,50,249,87,37,159,58,91,295,0,63,180,0,185,200,0,116,129,0,91,295,0,62,180,0,183,202,0,115,131,0,183,202,0,115,131,0,184,201,0,116,130,0,43,346,0,30,207,1,177,208,0,114,134,0,177,208,0,114,134,0,0,390,0,0,226,1,0,388,2,0,225,2,132,254,1,84,162,2,177,208,1,114,134,1,206,86,96,132,67,57
2017-07-12T23:59:59Z,224,385,315,191,377,222,288,178,133,89,0,0,0,0,0,0,2,382,2,223,4,379,2,221,0,0,0,0,0,0,0,0,47,249,84,34,160,57,88,291,1,61,179,1,179,200,0,113,130,0,88,291,1,60,179,2,177,201,1,112,131,1,177,201,1,112,131,1,179,199,1,113,130,1,42,339,2,30,204,3,169,209,1,108,136,1,172,208,0,110,135,0,0,385,0,0,224,2,0,385,0,0,224,1,129,250,2,83,161,3,170,210,1,109,137,1,198,91,94,127,71,56
2017-07-13T23:59:59Z,225,386,317,192,377,223,293,180,134,89,0,0,0,0,0,0,3,383,3,224,4,378,2,221,0,0,0,0,0,0,0,0,50,247,86,36,159,58,93,290,0,64,179,0,187,195,0,116,127,0,95,285,1,65,176,1,183,197,0,114,129,0,182,198,0,113,130,0,183,197,0,114,129,0,46,338,0,32,204,1,176,204,0,111,134,0,178,204,0,112,133,0,0,386,0,0,225,1,1,385,0,1,225,1,132,249,1,84,160,2,178,202,1,113,132,1,196,92,96,127,70,56
2017-07-14T23:59:59Z,224,380,312,190,372,221,288,178,129,86,0,0,0,0,0,0,4,376,3,223,4,374,3,221,0,0,0,0,0,0,0,0,49,244,84,35,159,57,91,286,0,63,179,1,182,194,0,114,128,1,92,285,0,62,178,1,180,196,0,113,129,1,180,196,0,113,129,1,181,195,0,114,128,1,45,335,0,31,204,2,172,204,0,110,134,1,172,204,0,110,134,1,0,380,0,0,224,2,0,380,0,0,224,2,130,246,2,83,159,4,171,205,1,109,135,1,197,88,94,127,69,56
2017-07-15T23:59:59Z,224,379,311,190,373,222,284,177,128,84,0,0,0,0,0,0,2,377,2,223,4,373,2,221,0,0,0,0,0,0,0,0,50,244,82,36,158,56,93,283,0,64,177,0,180,195,0,113,129,0,94,282,0,64,176,0,181,194,0,114,128,0,182,193,0,115,127,0,182,193,0,115,127,0,44,333,2,31,203,2,174,201,0,112,133,0,173,202,0,111,133,0,0,379,0,0,224,1,0,379,0,0,224,1,128,247,2,81,160,3,175,200,1,112,132,1,193,90,94,127,69,56
2017-07-16T23:59:59Z,223,378,310,189,372,221,286,176,129,86,0,0,0,0,0,0,2,376,2,222,4,372,2,220,0,0,0,0,0,0,0,0,50,243,82,36,158,56,92,283,0,64,176,0,183,191,0,115,126,0,95,280,0,65,174,0,182,192,0,115,126,0,182,192,0,115,126,0,182,192,0,115,126,0,45,333,0,32,202,1,175,199,0,112,131,0,175,199,0,112,131,0,0,378,0,0,223,1,0,378,0,0,223,1,131,243,2,84,157,3,173,201,1,111,132,1,197,84,95,130,65,56
2017-07-17T23:59:59Z,224,385,317,191,379,223,294,179,136,87,0,0,0,0,0,0,4,381,3,223,4,379,2,221,0,0,0,0,0,0,0,0,49,244,89,35,157,60,91,291,0,62,179,0,186,195,0,116,127,0,92,288,0,62,178,0,186,193,0,116,127,0,187,192,0,117,126,0,187,192,0,117,126,0,41,342,0,29,206,1,177,202,0,112,133,0,176,205,0,111,134,0,0,385,0,1,224,1,0,385,0,0,224,1,131,249,1,83,161,2,176,203,1,111,134,1,190,91,101,125,69,59
2017-07-18T23:59:59Z,224,385,317,191,378,223,296,180,133,86,0,0,0,0,0,0,2,383,2,223,4,381,2,222,0,0,0,0,0,0,0,0,49,244,89,35,158,59,91,291,0,62,179,0,185,196,0,114,129,0,93,287,0,63,177,0,187,193,0,116,128,0,187,192,1,116,128,1,186,193,0,115,128,0,44,338,1,30,204,2,181,198,0,113,132,0,182,199,0,114,132,0,0,385,0,0,224,1,0,385,0,0,224,1,137,244,1,85,159,2,182,197,1,115,131,1,190,91,102,124,69,59
2017-07-19T23:59:59Z,225,387,319,192,381,224,297,181,140,91,0,0,0,0,0,0,5,382,3,224,4,383,2,223,0,0,0,0,0,0,0,0,48,247,89,34,160,58,92,292,0,63,180,0,186,197,0,115,130,0,96,286,0,65,177,0,191,191,0,119,127,0,187,194,1,116,129,1,187,194,0,116,129,0,46,338,1,31,205,1,181,200,0,114,133,0,179,204,0,113,134,0,0,387,0,0,225,1,0,387,0,1,225,0,135,248,1,85,163,1,183,198,1,115,132,1,195,89,102,127,69,59
2017-07-20T23:59:59Z,222,382,318,191,375,221,299,182,137,89,0,0,0,0,0,0,4,378,3,221,1,379,1,220,0,0,0,0,0,0,0,0,50,239,90,36,154,60,92,285,2,63,175,1,188,190,0,116,125,0,92,283,2,62,175,1,188,189,0,116,126,0,186,190,1,114,127,1,186,190,0,114,127,0,45,334,1,30,202,2,179,197,0,112,132,0,178,200,0,111,132,0,0,382,0,0,222,1,0,382,0,0,222,1,134,241,4,84,157,4,182,194,1,115,129,1,193,87,102,127,66,59
2017-07-21T23:59:59Z,221,376,315,190,373,220,296,179,133,86,0,0,0,0,0,0,4,372,3,220,1,375,1,220,0,0,0,0,0,0,0,0,47,237,89,33,155,59,91,282,0,61,176,0,187,185,0,114,125,0,94,279,0,63,173,0,190,183,0,117,123,0,187,185,1,114,125,1,187,185,0,114,125,0,45,330,1,30,200,2,180,192,0,111,130,0,180,192,0,112,131,0,0,376,0,0,221,1,0,375,1,0,221,2,133,241,1,82,158,2,179,193,1,111,131,1,184,87,103,122,69,60
2017-07-22T23:59:59Z,222,380,319,191,374,219,299,180,135,86,0,0,0,0,0,0,3,377,2,221,1,376,1,219,0,0,0,0,0,0,0,0,49,233,95,35,152,62,94,283,0,62,177,0,193,183,0,117,124,0,93,284,0,62,176,0,190,187,0,116,126,0,189,187,1,115,126,1,189,187,0,115,126,0,42,337,1,28,204,2,181,195,0,113,131,0,182,194,0,113,130,0,0,380,0,1,222,0,0,380,0,0,222,0,137,241,1,85,157,1,180,196,1,112,132,1,185,88,105,122,69,61
2017-07-23T23:59:59Z,221,376,315,190,373,220,296,181,133,87,0,0,0,0,0,0,4,372,3,219,1,373,1,219,0,0,0,0,0,0,0,0,47,237,89,33,155,58,88,284,1,60,177,1,183,189,0,112,127,0,91,282,0,61,176,1,184,189,0,114,127,0,185,187,1,114,125,1,183,189,0,113,127,0,42,333,1,28,203,1,176,196,0,110,131,0,176,196,0,111,131,0,0,376,0,1,221,0,0,376,0,0,221,0,134,240,1,83,158,1,181,191,1,113,128,1,185,86,103,122,66,60
2017-07-24T23:59:59Z,224,385,321,192,380,222,298,180,133,87,0,0,0,0,0,0,3,382,2,223,4,379,2,221,0,0,0,0,0,0,0,0,47,245,90,33,157,59,91,291,0,61,180,0,183,198,0,113,130,0,93,289,0,62,178,0,188,194,0,116,128,0,185,196,1,114,129,1,188,193,0,116,127,0,42,342,1,28,206,1,175,207,0,109,138,0,178,203,0,111,133,0,0,385,0,0,224,0,0,385,0,0,224,0,131,252,1,80,164,1,179,201,2,111,132,2,192,88,103,123,68,60
2017-07-25T23:59:59Z,224,383,320,192,376,221,297,181,140,90,0,0,0,0,0,0,2,381,2,223,4,379,2,222,0,0,0,0,0,0,0,0,46,244,90,32,156,60,88,292,0,59,180,0,184,195,0,114,128,0,91,289,0,61,177,0,187,194,0,115,128,0,185,194,1,113,128,1,183,196,0,112,129,0,44,337,2,29,204,3,177,203,0,110,134,0,177,202,0,110,133,0,0,383,0,0,224,1,0,383,0,0,224,1,133,248,1,82,160,2,180,199,1,113,132,1,188,90,103,122,70,60
2017-07-26T23:59:59Z,223,384,325,193,378,221,302,183,136,88,0,0,0,0,0,0,3,381,2,222,4,380,2,221,0,0,0,0,0,0,0,0,48,242,91,34,156,59,90,291,0,60,179,0,186,194,0,113,129,0,90,291,0,59,179,0,188,194,0,115,128,0,186,194,1,114,128,1,184,196,0,113,130,0,42,341,1,28,205,1,180,201,0,113,133,0,178,202,0,111,134,0,0,384,0,0,223,1,0,384,0,1,223,0,136,246,1,84,160,1,184,196,1,115,130,1,192,86,104,124,68,60
2017-07-27T23:59:59Z,223,386,325,192,378,220,301,180,135,86,0,0,0,0,0,0,5,381,3,222,4,378,2,219,0,0,0,0,0,0,0,0,49,244,91,35,157,59,91,293,0,62,178,0,188,195,0,116,128,0,91,293,0,61,178,0,187,197,0,115,130,0,188,195,0,115,128,0,186,197,0,114,130,0,39,347,0,26,208,0,181,203,0,113,135,0,181,202,0,113,134,0,0,386,0,0,223,0,0,386,0,0,223,0,133,249,3,82,161,2,181,202,0,113,134,0,189,89,106,121,69,61
2017-07-28T23:59:59Z,224,386,323,192,379,221,299,180,137,88,0,0,0,0,0,0,2,384,2,223,4,380,2,221,0,0,0,0,0,0,0,0,53,241,90,38,155,59,93,291,0,63,178,0,187,196,0,114,129,0,95,289,0,63,176,0,189,195,0,115,128,0,190,194,0,116,127,0,190,193,0,117,127,0,41,345,0,28,206,1,182,202,0,113,134,0,181,202,0,113,133,0,0,386,0,0,224,1,0,386,0,0,224,1,134,250,1,82,161,2,180,203,0,112,133,0,189,90,105,123,69,61
2017-07-29T23:59:59Z,223,384,323,192,377,221,297,179,137,85,0,0,0,0,0,0,3,381,2,222,4,380,2,221,0,0,0,0,0,0,0,0,49,242,91,35,156,59,92,290,0,62,177,0,187,194,0,115,129,0,92,289,1,61,176,1,187,195,0,114,129,0,185,197,0,114,130,0,183,197,1,112,130,1,41,343,0,27,206,0,179,203,0,111,135,0,179,202,0,111,134,0,0,384,0,0,223,1,0,384,0,0,223,1,129,252,2,79,163,2,180,201,0,112,133,0,189,90,103,124,70,59
2017-07-30T23:59:59Z,224,388,326,192,380,222,302,181,139,89,0,0,0,0,0,0,3,385,2,223,4,380,2,220,0,0,0,0,0,0,0,0,48,248,90,34,160,59,90,296,0,60,180,0,184,201,0,112,133,0,89,297,0,59,180,0,186,200,0,114,131,0,184,202,0,112,133,0,182,203,0,112,134,0,38,350,0,25,209,0,180,206,0,112,136,0,180,205,0,112,135,0,0,388,0,0,224,0,0,388,0,0,224,0,131,255,1,81,164,1,178,207,0,111,137,0,193,89,104,124,69,60
2017-07-31T23:59:59Z,225,387,324,193,380,222,299,182,140,89,0,0,0,0,0,0,0,387,1,225,4,381,2,222,0,0,0,0,0,0,0,0,50,244,91,36,158,60,89,296,0,60,180,0,186,198,0,115,130,0,90,295,0,60,179,0,189,196,0,116,128,0,187,198,0,114,130,0,186,198,0,114,130,0,38,349,0,26,208,1,182,203,0,114,133,0,182,202,0,114,132,0,0,387,0,0,225,1,1,386,0,1,225,1,131,252,3,81,162,3,178,206,0,111,135,0,186,94,105,121,73,60
2017-08-01T23:59:59Z,224,381,318,192,375,222,292,179,133,85,0,0,0,0,0,0,1,380,2,224,4,377,2,222,0,0,0,0,0,0,0,0,48,239,92,34,155,61,85,294,0,58,181,0,183,195,0,113,129,0,88,292,0,58,180,0,181,198,0,112,131,0,181,198,0,111,131,0,182,197,0,112,130,0,39,342,0,26,207,1,172,207,0,107,138,0,174,204,0,109,135,0,0,381,0,0,224,1,0,381,0,0,224,1,132,247,1,80,162,2,178,200,0,112,133,0,182,93,104,120,74,59
2017-08-02T23:59:59Z,224,382,319,192,376,222,293,181,133,87,0,0,0,0,0,0,1,381,1,224,7,371,4,219,0,0,0,0,0,0,0,0,47,243,90,33,159,59,88,292,0,60,180,1,181,198,0,111,132,2,90,291,0,60,179,0,181,199,0,111,133,1,181,199,0,110,133,1,181,199,0,110,133,1,39,343,0,26,208,2,176,204,0,109,137,2,176,203,0,110,137,1,0,382,0,0,224,1,0,382,0,0,224,1,136,244,1,83,160,2,177,199,3,110,133,2,183,93,104,120,73,59
2017-08-03T23:59:59Z,225,385,320,193,379,223,296,182,132,86,0,0,0,0,0,0,2,383,2,225,4,381,4,223,0,0,0,0,0,0,0,0,47,244,92,34,159,61,90,293,0,62,179,1,183,198,0,115,131,2,92,292,0,62,178,0,187,195,0,117,129,1,184,198,0,114,132,1,186,196,0,115,131,1,39,346,0,26,209,2,177,205,0,111,136,2,177,204,0,112,135,1,0,385,0,0,225,2,0,385,0,0,225,2,133,250,1,81,164,2,182,199,0,115,132,1,184,94,105,122,73,60
2017-08-04T23:59:59Z,222,380,315,190,374,220,294,180,138,88,0,0,0,0,0,0,0,380,1,222,4,374,2,219,0,0,0,0,0,0,0,0,48,239,91,34,154,60,92,286,0,62,175,0,187,189,0,115,125,0,93,286,0,61,175,0,184,193,0,113,127,0,183,194,0,112,128,0,184,193,0,114,128,0,40,339,1,27,204,2,176,201,0,110,134,0,175,201,0,110,133,0,0,380,0,0,222,1,0,378,2,0,221,2,130,248,1,80,161,2,178,198,0,111,131,0,180,95,103,119,72,59
2017-08-05T23:59:59Z,220,378,314,189,372,218,292,179,128,82,0,0,0,0,0,0,0,378,1,220,4,374,2,218,0,0,0,0,0,0,0,0,47,239,90,33,153,60,88,288,0,61,174,0,179,195,0,112,127,0,90,287,0,60,174,0,183,192,0,114,125,0,179,196,0,111,128,0,180,195,0,112,128,0,41,337,0,27,202,1,172,203,0,108,133,0,171,203,0,108,133,0,0,378,0,0,220,1,0,376,2,0,219,2,135,241,1,83,155,2,180,194,0,114,127,0,183,90,103,120,68,59
2017-08-06T23:59:59Z,222,380,317,192,374,220,295,181,131,86,0,0,0,0,0,0,3,377,3,221,4,376,2,220,0,0,0,0,0,0,0,0,47,240,91,33,155,61,92,286,0,62,175,0,184,192,0,114,126,0,92,286,1,61,175,1,184,193,0,114,127,0,186,191,0,117,126,0,187,190,0,117,124,0,41,339,0,27,204,1,176,201,0,112,132,0,179,197,0,113,129,0,0,380,0,0,222,1,2,378,0,1,221,1,132,246,1,81,159,2,181,195,0,114,128,0,186,88,104,122,68,60
2017-08-07T23:59:59Z,222,380,316,191,373,219,297,182,133,85,0,0,0,0,0,0,1,379,2,221,4,372,2,218,0,0,0,0,0,0,0,0,48,238,92,34,153,61,91,287,0,62,175,0,184,192,0,114,126,0,93,286,0,62,174,0,184,193,0,114,126,0,182,195,0,113,128,0,183,194,0,113,127,0,39,341,0,26,205,1,181,196,0,114,130,0,180,196,0,113,129,0,0,380,0,0,222,1,0,380,0,0,222,1,135,243,1,84,158,2,175,201,0,111,133,0,181,93,104,119,71,60
2017-08-08T23:59:59Z,222,379,315,191,374,220,298,183,131,86,0,0,0,0,0,0,3,376,3,221,4,375,2,220,0,0,0,0,0,0,0,0,47,238,92,33,154,61,90,287,0,61,176,0,186,189,0,115,125,0,95,283,0,63,173,0,187,189,0,115,125,0,188,188,0,116,124,0,186,190,0,115,125,0,42,337,0,27,204,1,177,199,0,111,132,0,178,197,0,112,131,0,0,379,0,0,222,1,0,379,0,0,222,1,134,242,2,82,159,3,179,196,0,113,128,0,186,89,104,123,67,60
2017-08-09T23:59:59Z,222,378,314,192,374,221,290,179,133,87,0,0,0,0,0,0,1,377,2,221,4,374,2,220,0,0,0,0,0,0,0,0,48,237,92,33,152,61,87,289,0,60,176,0,184,190,0,115,123,0,88,289,0,59,176,0,179,196,0,112,127,0,178,197,0,110,128,0,182,193,0,113,125,0,38,340,0,25,205,1,174,201,0,109,132,0,174,200,0,109,131,0,0,378,0,0,222,1,0,378,0,0,222,1,132,244,1,81,158,2,176,196,2,111,129,1,183,90,103,120,70,60
2017-08-10T23:59:59Z,223,383,319,193,379,222,300,183,140,91,0,0,0,0,0,0,1,382,2,222,4,379,2,221,0,0,0,0,0,0,0,0,49,241,92,34,152,62,90,291,0,60,178,0,187,192,0,115,124,0,95,287,0,62,175,0,188,192,0,115,124,0,188,192,0,115,124,0,185,195,0,114,126,0,40,343,0,26,205,1,181,199,0,115,129,0,181,198,0,115,128,0,0,383,0,0,223,1,0,383,0,0,223,1,129,252,1,79,161,2,178,201,0,110,132,0,181,96,104,119,71,61
2017-08-11T23:59:59Z,222,379,315,192,375,221,297,183,131,86,0,0,0,0,0,0,1,378,2,221,4,371,2,218,0,0,0,0,0,0,0,0,47,240,91,32,154,61,87,290,0,59,177,0,181,194,0,112,126,0,89,289,0,59,176,0,181,195,0,112,127,0,181,195,0,111,127,0,181,195,0,111,127,0,38,341,0,25,205,1,175,201,0,110,131,0,177,198,0,111,129,0,0,379,0,0,222,1,0,379,0,0,222,1,130,247,1,80,159,2,171,204,0,107,132,0,187,89,101,123,67,59
2017-08-12T23:59:59Z,222,377,313,192,373,221,292,181,135,89,0,0,0,0,0,0,1,376,2,221,4,371,2,219,0,0,0,0,0,0,0,0,49,235,92,35,151,61,91,284,0,63,174,0,184,189,0,114,124,0,92,284,0,61,174,0,185,189,0,114,124,0,186,188,0,115,123,0,186,188,0,115,124,0,37,340,0,24,206,1,175,199,0,110,131,0,173,200,0,109,132,0,0,377,0,0,222,2,0,377,0,0,222,1,128,247,1,78,160,2,171,202,0,107,131,0,181,92,101,120,69,59